^^
Meteo Knjazevac Station Historical Data
Daily Summary for July 3, 2021 Units:  English    Metric   Both
Daily Weekly Monthly Yearly Custom
  High: Low: Average:
Temperature: 52.2 °F 51.3 °F 51.8 °F
Dew Point: 42.3 °F 40.7 °F 41.3 °F
Humidity: 69% 65% 67%
Wind Speed: 8mph 0mph 3.9mph
Wind Gust: 17mph - -
Wind- - SE
Pressure: 29.72 in 29.69 in -
Precipitation: 0.00 in    
Historical Graphs
 
 
Tabular Data for July 3, 2021
Time Temperature Dew Point Pressure Wind Wind Speed Wind Gust Humidity Rainfall Rate (Hourly) solar Conditions
00:00 51.3 °F 40.7 °F 29.71 in SE 2 mph 8 mph 67% 0.00 in 0 W/m2
00:10 51.3 °F 40.7 °F 29.71 in SSE 3 mph 9 mph 67% 0.00 in 0 W/m2
00:20 51.3 °F 40.7 °F 29.72 in South 7 mph 14 mph 67% 0.00 in 0 W/m2
00:30 51.3 °F 40.7 °F 29.71 in South 6 mph 12 mph 67% 0.00 in 0 W/m2
00:40 51.3 °F 40.8 °F 29.70 in SSE 6 mph 16 mph 67% 0.00 in 0 W/m2
00:50 51.5 °F 40.9 °F 29.70 in SSE 8 mph 17 mph 67% 0.00 in 0 W/m2
01:00 51.8 °F 41.2 °F 29.70 in SSE 6 mph 15 mph 67% 0.00 in 0 W/m2
01:10 52 °F 41 °F 29.70 in SE 8 mph 14 mph 66% 0.00 in 0 W/m2
01:20 52 °F 41.4 °F 29.70 in SE 7 mph 15 mph 67% 0.00 in 0 W/m2
01:30 52.2 °F 40.7 °F 29.70 in SE 6 mph 15 mph 65% 0.00 in 0 W/m2
01:40 52.2 °F 40.7 °F 29.71 in SE 5 mph 12 mph 65% 0.00 in 0 W/m2
01:50 52 °F 41.4 °F 29.70 in East 6 mph 10 mph 67% 0.00 in 0 W/m2
02:00 51.8 °F 41.2 °F 29.70 in ENE 2 mph 12 mph 67% 0.00 in 0 W/m2
02:10 51.8 °F 41.2 °F 29.70 in ESE 3 mph 7 mph 67% 0.00 in 0 W/m2
02:20 51.6 °F 41.4 °F 29.69 in NNE 3 mph 4 mph 68% 0.00 in 0 W/m2
02:30 51.6 °F 41.4 °F 29.70 in East 3 mph 8 mph 68% 0.00 in 0 W/m2
02:40 51.8 °F 41.6 °F 29.69 in SE 2 mph 7 mph 68% 0.00 in 0 W/m2
02:50 52.2 °F 41.5 °F 29.69 in SE 2 mph 9 mph 67% 0.00 in 0 W/m2
03:00 52.2 °F 41.5 °F 29.70 in East 3 mph 7 mph 67% 0.00 in 0 W/m2
03:10 52.2 °F 41.9 °F 29.70 in Calm   6 mph 68% 0.00 in 0 W/m2
03:20 52.1 °F 41.8 °F 29.69 in NNE 2 mph 4 mph 68% 0.00 in 0 W/m2
03:30 52.2 °F 41.9 °F 29.69 in ENE 1 mph 6 mph 68% 0.00 in 0 W/m2
03:40 52 °F 42.1 °F 29.69 in West 1 mph 7 mph 69% 0.00 in 0 W/m2
03:50 52.2 °F 42.3 °F 29.69 in SSE 3 mph 7 mph 69% 0.00 in 0 W/m2
04:00 52 °F 41.7 °F 29.70 in South 2 mph 6 mph 68% 0.00 in 0 W/m2
Knjazevac, Serbia
Compliments of Weather Underground - 2 mb